Tracking 32991 objects as of 22-Jan-2026
HD Live streaming from Space Station
objects crossing your sky now

COSMOS 1375 DEB

Track COSMOS 1375 DEB now!
10-day predictions


NORAD ID: 18477
Int'l Code: 1982-055BF
Perigee: 733.6 km
Apogee: 746.7 km
Inclination: 65.8 °
Period: 99.5 minutes
Semi major axis: 7111 km
RCS: 0.0083 m2 (small)
Launch date: June 6, 1982
Source: Commonwealth of Independent States (former USSR) (CIS)
Launch site: PLESETSK MISSILE AND SPACE COMPLEX (PKMTR)

Note: This is SATELLITE DEBRIS
Your satellite tracking list
Your tracking list is empty




NASA's NSSDC Master Catalog

Two Line Element Set (TLE):
1 18477U 82055BF  26022.00165759  .00014292  00000-0  38762-2 0  9998
2 18477  65.8155 256.1970 0009154  37.1906 322.9826 14.47747544 57061
Source of the keplerian elements: AFSPC